User: anonymous   Login
Location: Unspecified
(0.0000°N, 0.0000°E)
Time: 00:58:18
(UTC+00:00)
Language:

GOSAT - Orbit

View from above orbital plane
View from above orbital plane
View from above satellite
View from above satellite

Ground track
Ground track

The orbit data is extracted from the following two-line orbital elements,

1 33492U 09002A   15060.51974971 -.00000048  00000-0 -55060-7 0  9994
2 33492 098.0639 171.0167 0001376 082.4693 277.6657 14.67549610326824
Epoch (UTC): 01 March 2015 12:28:26
Eccentricity: 0.0001376
inclination: 98.0639°
perigee height: 668 km
apogee height: 670 km
right ascension of ascending node: 171.0167°
argument of perigee: 82.4693°
revolutions per day: 14.67549610
mean anomaly at epoch: 277.6657°
orbit number at epoch: 32682

The dashed part of the orbit path shows where the satellite is in the earth's shadow,  

DLR